Language: 


Des rapports , des résumés tant et plus, au choix de chacun....


Données statistiques de la station
Quotidien Rapport Novembre 10, 2017 Unités:  Anglais    Métrique   les deux
« Précédent Jour
Suivant Jour »
Quotidien Hebdomadaire Mensuel Annuel Actuel
  Haut: Bas: Moyen:
Température: 55.6 °F 32 °F 49.3 °F
Pt de rosée: 55.4 °F 37.4 °F 47.1 °F
Humidité: 98 % 0 % 90 %
Vitesse du vent: 11.2 mph 0 mph 4.1 mph
Rafales: 14.8 mph - -
Vent:- - West
Pression: 30.2 in 0 in -
Précipitation: 0.11 in    
Historical Graphs
 
 
Données statistiques pour Novembre 10, 2017
Heure Température Point de rosée Pression Vent Vitesse du vent Refales Humidité Pluie (taux horaire)
00:04 48.9 °F 48.2 °F 30.2 in Calm   3.8 mph 98 % 0.01 in
00:09 49.1 °F 50 °F 30.2 in SSW 2.5 mph 5.4 mph 98 % 0.01 in
00:14 49.1 °F 50 °F 30.1 in SSW 3.1 mph 6.5 mph 98 % 0.01 in
00:19 49.3 °F 50 °F 30.1 in SSW 5.6 mph 7.8 mph 98 % 0.01 in
00:24 49.3 °F 50 °F 30.1 in SSW 4.9 mph 7.8 mph 98 % 0.01 in
00:29 49.5 °F 50 °F 30.2 in SW 3.6 mph 6.3 mph 98 % 0.01 in
00:34 49.5 °F 50 °F 30.2 in SW 4.9 mph 6.3 mph 98 % 0.01 in
00:39 49.5 °F 50 °F 30.2 in WSW 3.4 mph 7.4 mph 98 % 0 in
00:44 49.6 °F 50 °F 30.2 in WSW 4.9 mph 7.4 mph 98 % 0 in
00:49 49.6 °F 50 °F 30.2 in Calm   7.4 mph 98 % 0 in
00:54 49.6 °F 50 °F 30.2 in WSW 2.9 mph 5.4 mph 98 % 0 in
00:59 49.6 °F 50 °F 30.2 in Calm   5.4 mph 98 % 0 in
01:04 49.6 °F 50 °F 30.2 in West 2.7 mph 5.4 mph 98 % 0 in
01:09 49.8 °F 50 °F 30.2 in Calm   5.4 mph 98 % 0 in
01:14 49.8 °F 50 °F 30.2 in Calm   5.4 mph 98 % 0 in
01:19 49.8 °F 50 °F 30.2 in Calm   4 mph 98 % 0 in
01:24 49.8 °F 50 °F 30.2 in Calm   3.8 mph 98 % 0 in
01:29 50 °F 50 °F 30.2 in West 4 mph 5.6 mph 98 % 0 in
01:34 50 °F 50 °F 30.2 in SW 5.4 mph 6 mph 98 % 0 in
01:39 50 °F 50 °F 30.2 in WSW 7.2 mph 7.8 mph 98 % 0 in
01:44 50.2 °F 50 °F 30.1 in WSW 7.6 mph 7.8 mph 98 % 0 in
01:49 50.2 °F 50 °F 30.1 in WSW 4.9 mph 7.6 mph 98 % 0 in
01:54 50.2 °F 50 °F 30.1 in WSW 4.5 mph 6.3 mph 98 % 0 in
01:59 50.2 °F 50 °F 30.1 in WSW 5.6 mph 6.3 mph 98 % 0 in
02:04 50.2 °F 50 °F 30.1 in WSW 6.3 mph 6.3 mph 98 % 0 in
02:10 50.2 °F 50 °F 30.1 in Calm   6.3 mph 98 % 0 in
02:15 50.2 °F 50 °F 30.1 in WSW 4 mph 6.3 mph 98 % 0 in
02:20 50.2 °F 50 °F 30.1 in WSW 4.3 mph 6 mph 98 % 0 in
02:25 50.2 °F 50 °F 30.1 in WSW 4.3 mph 6 mph 98 % 0 in
02:30 50.2 °F 50 °F 30.1 in WSW 6.3 mph 6.3 mph 98 % 0 in
02:35 50.2 °F 50 °F 30.1 in SSW 3.6 mph 6.3 mph 98 % 0 in
02:40 50.2 °F 50 °F 30.1 in Calm   6.3 mph 98 % 0 in
02:45 50.2 °F 50 °F 30.1 in WSW 4.3 mph 6.3 mph 98 % 0 in
02:50 50.2 °F 50 °F 30.1 in SW 4.3 mph 6.3 mph 98 % 0 in
02:55 50.2 °F 50 °F 30.1 in SSW 4.3 mph 6.3 mph 98 % 0 in
03:01 32 °F 50 °F 0 in Calm     0 % 0 in
03:06 50.2 °F 50 °F 30.1 in Calm   5.4 mph 98 % 0 in
03:11 50.2 °F 50 °F 30.1 in SSW 4.7 mph 5.6 mph 98 % 0 in
03:17 50.2 °F 50 °F 30.1 in Calm   6 mph 98 % 0 in
03:22 50.2 °F 50 °F 30.1 in Calm   6.5 mph 98 % 0 in
03:27 50.2 °F 50 °F 30.1 in SW 3.8 mph 6.5 mph 98 % 0 in
03:32 50.2 °F 50 °F 30.1 in SSW 4.3 mph 5.8 mph 98 % 0 in
03:37 50.2 °F 50 °F 30.1 in WSW 2 mph 5.8 mph 98 % 0 in
03:42 50.2 °F 50 °F 30.1 in SSW 3.6 mph 5.8 mph 98 % 0 in
03:47 50.4 °F 50 °F 30.1 in Calm   4.7 mph 98 % 0 in
03:52 50.4 °F 50 °F 30.1 in SW 3.4 mph 4.7 mph 98 % 0.01 in
03:57 50.4 °F 50 °F 30.1 in SSW 2.9 mph 5.4 mph 98 % 0.04 in
04:02 50.2 °F 50 °F 30.1 in Calm   5.4 mph 98 % 0.03 in
04:07 50.2 °F 50 °F 30.1 in SSW 3.1 mph 3.4 mph 98 % 0.03 in
04:12 50.2 °F 50 °F 30.1 in Calm   3.8 mph 98 % 0.03 in
04:17 50.2 °F 50 °F 30.1 in WSW 4.3 mph 4.3 mph 98 % 0.03 in
04:22 50.4 °F 50 °F 30.1 in WSW 4.3 mph 5.6 mph 98 % 0.03 in
04:27 50.4 °F 50 °F 30.1 in WSW 2.2 mph 5.6 mph 98 % 0.03 in
04:32 50.4 °F 50 °F 30.1 in Calm   4 mph 98 % 0.03 in
04:37 50.5 °F 50 °F 30.1 in Calm   4.3 mph 98 % 0.03 in
04:42 50.5 °F 50 °F 30.1 in Calm   4.9 mph 98 % 0.03 in
04:47 50.7 °F 50 °F 30.1 in WSW 4.7 mph 4.9 mph 98 % 0.03 in
04:52 50.7 °F 50 °F 30.1 in West 3.8 mph 4.9 mph 98 % 0.02 in
04:57 50.9 °F 51.8 °F 30.1 in Calm   4.9 mph 98 % 0.01 in
05:03 50.9 °F 51.8 °F 30.1 in West 2.5 mph 4.7 mph 98 % 0.01 in
05:08 50.9 °F 51.8 °F 30.1 in Calm   4 mph 98 % 0.01 in
05:13 50.9 °F 51.8 °F 30.1 in WSW 3.8 mph 4 mph 98 % 0.01 in
05:18 50.9 °F 51.8 °F 30.1 in Calm   4 mph 98 % 0.01 in
05:23 50.9 °F 51.8 °F 30.1 in SSW 1.3 mph 3.6 mph 98 % 0.01 in
05:28 50.9 °F 51.8 °F 30.1 in WSW 3.6 mph 4.9 mph 98 % 0.01 in
05:33 50.9 °F 51.8 °F 30.1 in Calm   4.9 mph 98 % 0.01 in
05:38 50.7 °F 50 °F 30.1 in WSW 4.7 mph 4.7 mph 98 % 0.01 in
05:43 50.7 °F 50 °F 30.1 in SW 4.9 mph 6.5 mph 98 % 0.01 in
05:48 50.7 °F 50 °F 30.1 in WSW 5.6 mph 6.5 mph 98 % 0.01 in
05:53 50.7 °F 50 °F 30.1 in SW 5.8 mph 6.7 mph 98 % 0.01 in
05:58 50.7 °F 50 °F 30 in SW 6.9 mph 8.5 mph 98 % 0 in
06:03 50.9 °F 51.8 °F 30 in SW 6.3 mph 8.5 mph 98 % 0 in
06:08 50.9 °F 51.8 °F 30 in WSW 6.5 mph 8.5 mph 98 % 0 in
06:13 50.9 °F 51.8 °F 30 in SW 5.6 mph 7.6 mph 98 % 0 in
06:18 50.9 °F 51.8 °F 30 in WSW 3.8 mph 7.6 mph 98 % 0 in
06:23 50.9 °F 51.8 °F 30 in WSW 6.3 mph 7.2 mph 98 % 0 in
06:28 50.9 °F 51.8 °F 30 in WSW 4.9 mph 7.2 mph 98 % 0 in
06:33 50.9 °F 51.8 °F 30 in WSW 5.8 mph 6.5 mph 98 % 0 in
06:38 50.9 °F 51.8 °F 30 in WSW 5.4 mph 6.3 mph 98 % 0 in
06:43 50.9 °F 51.8 °F 30 in WSW 4 mph 6.3 mph 98 % 0 in
06:48 50.9 °F 51.8 °F 30 in WSW 3.8 mph 5.8 mph 98 % 0 in
06:53 50.9 °F 51.8 °F 30 in WSW 5.6 mph 6.3 mph 98 % 0 in
06:59 50.9 °F 51.8 °F 30 in WSW 4.9 mph 6.3 mph 98 % 0 in
07:04 50.7 °F 50 °F 30 in WSW 7.6 mph 7.6 mph 98 % 0 in
07:09 50.9 °F 51.8 °F 30 in WSW 6.3 mph 7.6 mph 98 % 0.01 in
07:14 50.9 °F 51.8 °F 30 in West 6.5 mph 14.8 mph 98 % 0.01 in
07:19 51.1 °F 51.8 °F 30 in West 10.5 mph 14.8 mph 98 % 0.01 in
07:24 50.9 °F 51.8 °F 30 in WNW 9.8 mph 13.2 mph 98 % 0.01 in
07:29 50.7 °F 50 °F 30 in West 11 mph 13.2 mph 98 % 0.01 in
07:34 50.7 °F 50 °F 30 in West 7.4 mph 11 mph 98 % 0.01 in
07:39 50.5 °F 50 °F 30 in West 8.1 mph 11 mph 98 % 0.01 in
07:44 50.4 °F 50 °F 30 in West 11.2 mph 12.8 mph 98 % 0.01 in
07:49 50.2 °F 50 °F 30 in WNW 9.2 mph 14.8 mph 98 % 0.01 in
07:54 50.2 °F 50 °F 30 in West 6.3 mph 14.8 mph 98 % 0.01 in
07:59 49.8 °F 50 °F 30 in West 3.8 mph 11 mph 98 % 0.01 in
08:04 49.8 °F 50 °F 30 in WSW 4.3 mph 8.7 mph 98 % 0 in
08:09 49.6 °F 50 °F 30 in SW 7.6 mph 7.6 mph 98 % 0 in
08:15 49.5 °F 50 °F 30 in West 8.5 mph 9.4 mph 98 % 0 in
08:20 49.5 °F 50 °F 30 in West 6 mph 12.5 mph 98 % 0 in
08:25 49.3 °F 50 °F 30 in West 4.9 mph 12.5 mph 98 % 0 in
08:30 49.1 °F 50 °F 30.1 in WSW 6.3 mph 7.8 mph 98 % 0 in
08:35 48.9 °F 48.2 °F 30.1 in WSW 6 mph 8.7 mph 98 % 0 in
08:40 48.7 °F 48.2 °F 30 in SW 6.3 mph 8.7 mph 98 % 0 in
08:45 48.7 °F 48.2 °F 30 in WSW 6.5 mph 9.8 mph 98 % 0 in
08:50 48.6 °F 48.2 °F 30 in WSW 5.4 mph 9.8 mph 98 % 0 in
08:55 48.6 °F 48.2 °F 30 in SSW 5.8 mph 6.5 mph 98 % 0 in
09:00 48.6 °F 48.2 °F 30 in West 4.9 mph 6.3 mph 98 % 0.01 in
09:05 48.6 °F 48.2 °F 30 in SW 5.4 mph 6.5 mph 98 % 0.01 in
09:11 48.6 °F 48.2 °F 30 in WSW 7.8 mph 7.8 mph 98 % 0.01 in
09:16 48.6 °F 48.2 °F 30 in WSW 4 mph 7.8 mph 98 % 0.01 in
09:17 48.6 °F 48.2 °F 30 in SW 4.9 mph 7.8 mph 98 % 0.01 in
09:22 48.6 °F 48.2 °F 30 in SSW 6 mph 6 mph 98 % 0.01 in
09:27 48.6 °F 48.2 °F 30 in WSW 6.3 mph 6.3 mph 98 % 0.02 in
09:32 48.6 °F 48.2 °F 30 in WSW 5.8 mph 6.3 mph 98 % 0.02 in
09:37 48.7 °F 48.2 °F 30 in WSW 6 mph 6.3 mph 98 % 0.02 in
09:42 48.7 °F 48.2 °F 30 in WSW 4.9 mph 6 mph 98 % 0.02 in
09:47 48.7 °F 48.2 °F 30 in WSW 5.4 mph 6.3 mph 98 % 0.02 in
09:52 48.9 °F 48.2 °F 30 in WSW 5.6 mph 6.3 mph 98 % 0.02 in
09:57 48.9 °F 48.2 °F 30 in WSW 4.9 mph 6.5 mph 98 % 0.01 in
10:02 49.1 °F 50 °F 30 in WSW 4.9 mph 6.5 mph 98 % 0.01 in
10:07 49.3 °F 50 °F 30 in WSW 6.3 mph 6.3 mph 98 % 0.02 in
10:12 49.8 °F 50 °F 30 in West 7.6 mph 7.8 mph 98 % 0.02 in
10:17 50.2 °F 50 °F 30 in WSW 7.4 mph 8.7 mph 98 % 0.02 in
10:22 50.4 °F 50 °F 30 in WSW 6 mph 8.7 mph 98 % 0.02 in
10:27 50.5 °F 50 °F 30 in West 6.5 mph 7.4 mph 98 % 0.01 in
10:32 50.5 °F 50 °F 30 in West 4 mph 6.9 mph 98 % 0.01 in
10:37 51.1 °F 51.8 °F 30 in WSW 4.9 mph 7.8 mph 98 % 0.01 in
10:43 51.4 °F 51.8 °F 30 in WSW 4.9 mph 7.8 mph 98 % 0.01 in
10:48 51.6 °F 51.8 °F 30 in WSW 5.6 mph 6.9 mph 98 % 0.01 in
10:53 51.8 °F 51.8 °F 30 in WSW 7.8 mph 7.8 mph 98 % 0.01 in
10:58 51.8 °F 51.8 °F 30 in WSW 6.3 mph 7.8 mph 98 % 0.01 in
11:03 52.3 °F 51.8 °F 30 in Calm   7.8 mph 98 % 0 in
11:08 52.5 °F 51.8 °F 30 in WSW 5.8 mph 7.4 mph 98 % 0 in
11:13 52.7 °F 53.6 °F 30 in WSW 4.9 mph 8.5 mph 98 % 0 in
11:18 53.1 °F 53.6 °F 30 in West 6.5 mph 8.5 mph 98 % 0 in
11:23 53.2 °F 53.6 °F 30 in WSW 6.3 mph 8.1 mph 98 % 0 in
11:28 53.4 °F 53.6 °F 30 in West 5.6 mph 7.4 mph 98 % 0 in
11:33 53.4 °F 53.6 °F 30 in West 8.1 mph 8.7 mph 98 % 0 in
11:39 53.4 °F 53.6 °F 30 in West 6 mph 12.1 mph 98 % 0 in
11:44 53.4 °F 53.6 °F 30 in WSW 6.5 mph 12.5 mph 98 % 0 in
11:49 53.6 °F 53.6 °F 30 in West 4.7 mph 12.5 mph 98 % 0 in
11:54 54 °F 53.6 °F 30 in NW 7.8 mph 11.9 mph 98 % 0 in
11:59 54.1 °F 55.4 °F 30 in West 9.2 mph 12.8 mph 98 % 0 in
12:04 54.3 °F 55.4 °F 30 in WNW 3.8 mph 12.8 mph 98 % 0 in
12:09 54.5 °F 55.4 °F 30 in WNW 8.5 mph 12.5 mph 98 % 0 in
12:14 54.5 °F 55.4 °F 30 in WSW 3.8 mph 12.5 mph 98 % 0 in
12:19 54.7 °F 55.4 °F 30 in West 5.6 mph 11 mph 98 % 0 in
12:24 54.5 °F 55.4 °F 30 in West 4.7 mph 10.1 mph 98 % 0 in
12:29 54.5 °F 55.4 °F 30 in West 4.3 mph 10.1 mph 98 % 0 in
12:34 54.5 °F 55.4 °F 30 in West 5.6 mph 8.5 mph 98 % 0 in
12:39 54.5 °F 55.4 °F 30 in WNW 6 mph 7.6 mph 97 % 0 in
12:44 54.5 °F 55.4 °F 30 in WNW 5.4 mph 8.7 mph 97 % 0 in
12:49 54.5 °F 55.4 °F 30 in North 8.5 mph 10.5 mph 97 % 0 in
12:54 54.5 °F 55.4 °F 30 in NNW 2.9 mph 10.5 mph 97 % 0 in
12:59 54.1 °F 53.6 °F 30 in NW 2 mph 7.8 mph 97 % 0 in
13:04 53.4 °F 53.6 °F 30 in NW 3.6 mph 8.7 mph 96 % 0 in
13:09 53.1 °F 51.8 °F 30 in WNW 5.6 mph 8.7 mph 96 % 0 in
13:14 53.1 °F 51.8 °F 30 in NW 3.8 mph 8.1 mph 96 % 0 in
13:19 53.1 °F 51.8 °F 30 in NW 0.9 mph 8.1 mph 96 % 0 in
13:24 53.2 °F 51.8 °F 30 in NNE 8.5 mph 8.5 mph 96 % 0 in
13:29 53.4 °F 53.6 °F 30 in NNW 4 mph 8.5 mph 96 % 0 in
13:34 53.8 °F 53.6 °F 30 in West 6.3 mph 6.3 mph 96 % 0 in
13:39 54 °F 53.6 °F 30 in NNW 3.8 mph 7.4 mph 95 % 0.01 in
13:44 54 °F 51.8 °F 30 in WNW 5.6 mph 7.4 mph 93 % 0.01 in
13:49 54.1 °F 53.6 °F 30 in West 4.9 mph 6.9 mph 93 % 0.01 in
13:54 54.5 °F 53.6 °F 30 in NNW 7.4 mph 7.4 mph 92 % 0.01 in
13:59 54.5 °F 53.6 °F 30 in North 5.4 mph 7.4 mph 91 % 0.01 in
14:04 54.9 °F 53.6 °F 30 in NE 5.4 mph 7.4 mph 91 % 0.01 in
14:09 55 °F 51.8 °F 30 in North 2.5 mph 6 mph 87 % 0.01 in
14:14 55 °F 51.8 °F 30 in North 4.7 mph 12.8 mph 85 % 0.01 in
14:19 55 °F 50 °F 30 in NW 5.4 mph 12.8 mph 83 % 0.01 in
14:24 55.4 °F 48.2 °F 30 in NNW 5.8 mph 12.3 mph 77 % 0.01 in
14:29 55.6 °F 48.2 °F 30 in ENE 8.5 mph 11.9 mph 72 % 0.01 in
14:35 55 °F 46.4 °F 30 in NNW 8.1 mph 11.9 mph 70 % 0.01 in
14:40 55 °F 46.4 °F 30 in North 5.4 mph 10.1 mph 70 % 0 in
14:45 55 °F 44.6 °F 30.1 in North 7.2 mph 13.4 mph 67 % 0 in
14:50 54.7 °F 44.6 °F 30.1 in NE 7.4 mph 13.4 mph 67 % 0 in
14:55 54.3 °F 44.6 °F 30.1 in North 4.3 mph 10.1 mph 68 % 0 in
15:00 53.6 °F 44.6 °F 30 in WNW 6.9 mph 11.4 mph 69 % 0 in
15:05 54 °F 44.6 °F 30 in North 8.7 mph 11.4 mph 71 % 0 in
15:10 53.8 °F 46.4 °F 30 in West 6 mph 10.3 mph 72 % 0 in
15:15 54.3 °F 46.4 °F 30 in NNE 1.6 mph 10.3 mph 74 % 0 in
15:20 54.1 °F 46.4 °F 30 in NNE 10.3 mph 10.3 mph 74 % 0 in
15:25 54.1 °F 46.4 °F 30 in SSW 6.5 mph 10.3 mph 74 % 0 in
15:30 53.6 °F 46.4 °F 30 in North 1.1 mph 10.3 mph 73 % 0 in
15:35 53.8 °F 46.4 °F 30 in Calm   5.6 mph 73 % 0 in
15:40 53.4 °F 44.6 °F 30 in NNW 6.5 mph 8.5 mph 71 % 0 in
15:45 53.1 °F 42.8 °F 30 in WNW 2.9 mph 8.5 mph 69 % 0 in
15:50 52.9 °F 44.6 °F 30 in NW 4.7 mph 7.6 mph 71 % 0 in
15:55 52.5 °F 44.6 °F 30 in WSW 3.8 mph 4.7 mph 72 % 0 in
16:00 52.5 °F 44.6 °F 30 in NNE 4.9 mph 5.8 mph 73 % 0 in
16:05 52.5 °F 44.6 °F 30 in North 6.3 mph 6.3 mph 72 % 0 in
16:10 52.5 °F 42.8 °F 30 in North 3.8 mph 8.5 mph 70 % 0 in
16:15 52.3 °F 42.8 °F 30 in NNW 2.9 mph 8.5 mph 68 % 0 in
16:20 52.2 °F 42.8 °F 30 in SW 4.3 mph 4.3 mph 68 % 0 in
16:25 52.2 °F 42.8 °F 30 in North 2.5 mph 6.5 mph 69 % 0 in
16:30 52 °F 42.8 °F 30.1 in Calm   6.5 mph 68 % 0 in
16:35 51.8 °F 42.8 °F 30.1 in North 7.6 mph 7.6 mph 68 % 0 in
16:40 51.6 °F 42.8 °F 30.1 in NNW 9.4 mph 9.4 mph 69 % 0 in
16:45 51.4 °F 42.8 °F 30.1 in NW 6.5 mph 9.4 mph 70 % 0 in
16:50 51.3 °F 42.8 °F 30.1 in NW 1.1 mph 9.4 mph 71 % 0 in
16:55 50.9 °F 42.8 °F 30.1 in WNW 2.9 mph 7.6 mph 71 % 0 in
17:00 50.7 °F 42.8 °F 30.1 in SSW 2.5 mph 7.6 mph 71 % 0 in
17:05 50.7 °F 42.8 °F 30.1 in NW 3.6 mph 5.6 mph 71 % 0 in
17:10 50.4 °F 42.8 °F 30.1 in NNE 3.4 mph 5.8 mph 71 % 0 in
17:15 50.2 °F 42.8 °F 30.1 in West 4 mph 5.8 mph 72 % 0 in
17:20 50.2 °F 42.8 °F 30.1 in WNW 0.9 mph 5.8 mph 72 % 0 in
17:25 50 °F 42.8 °F 30.1 in WNW 3.4 mph 5.8 mph 73 % 0 in
17:30 49.8 °F 42.8 °F 30.1 in Calm   6 mph 73 % 0 in
17:35 49.6 °F 42.8 °F 30.1 in NNW 4 mph 6 mph 74 % 0 in
17:40 49.5 °F 42.8 °F 30.1 in WNW 1.1 mph 6 mph 74 % 0 in
17:45 49.5 °F 42.8 °F 30.1 in WNW 3.1 mph 5.6 mph 75 % 0 in
17:50 49.3 °F 42.8 °F 30.1 in NNW 4 mph 5.8 mph 75 % 0 in
17:55 49.1 °F 42.8 °F 30.1 in WNW 1.6 mph 6.5 mph 75 % 0 in
18:00 49.1 °F 42.8 °F 30.1 in WSW 3.8 mph 6.5 mph 75 % 0 in
18:05 49.1 °F 42.8 °F 30.1 in NNW 5.8 mph 6.3 mph 75 % 0 in
18:10 49.1 °F 42.8 °F 30.1 in West 2.7 mph 6.3 mph 75 % 0 in
18:15 48.7 °F 42.8 °F 30.1 in WSW 3.8 mph 5.8 mph 75 % 0 in
18:20 48.7 °F 42.8 °F 30.1 in West 3.6 mph 4.7 mph 75 % 0 in
18:25 48.6 °F 42.8 °F 30.1 in West 3.8 mph 4.7 mph 76 % 0 in
18:30 48.6 °F 42.8 °F 30.1 in WNW 3.4 mph 3.8 mph 76 % 0 in
18:36 48.4 °F 41 °F 30.1 in NNW 2.7 mph 4.9 mph 76 % 0 in
18:41 48 °F 42.8 °F 30.1 in Calm   4.9 mph 77 % 0 in
18:46 47.8 °F 42.8 °F 30.1 in WNW 3.8 mph 3.8 mph 78 % 0 in
18:51 47.5 °F 41 °F 30.1 in Calm   3.8 mph 78 % 0 in
18:56 47.1 °F 41 °F 30.1 in WNW 3.1 mph 3.8 mph 79 % 0 in
19:01 46.9 °F 42.8 °F 30.1 in Calm   4 mph 80 % 0 in
19:06 46.8 °F 41 °F 30.1 in West 1.6 mph 4 mph 81 % 0 in
19:11 46.9 °F 42.8 °F 30.1 in West 4 mph 4 mph 81 % 0 in
19:16 46.9 °F 42.8 °F 30.1 in NNE 3.6 mph 4 mph 82 % 0 in
19:21 46.9 °F 42.8 °F 30.1 in West 2.9 mph 4 mph 82 % 0 in
19:26 47.1 °F 42.8 °F 30.1 in West 4 mph 4 mph 81 % 0 in
19:31 47.1 °F 42.8 °F 30.1 in West 3.6 mph 4 mph 80 % 0 in
19:36 47.3 °F 42.8 °F 30.1 in West 4.7 mph 6.3 mph 79 % 0 in
19:41 47.3 °F 41 °F 30.1 in WNW 3.6 mph 6.3 mph 78 % 0 in
19:46 47.3 °F 41 °F 30.1 in WNW 3.6 mph 6.3 mph 78 % 0 in
19:51 46.8 °F 41 °F 30.1 in West 3.6 mph 3.6 mph 78 % 0 in
19:56 46.4 °F 41 °F 30.1 in Calm   3.6 mph 78 % 0 in
20:01 45.7 °F 39.2 °F 30.1 in WSW 3.1 mph 3.6 mph 79 % 0 in
20:06 45.3 °F 39.2 °F 30.1 in West 4.3 mph 4.3 mph 79 % 0 in
20:12 44.8 °F 39.2 °F 30.1 in West 4.3 mph 4.3 mph 80 % 0 in
20:17 44.2 °F 39.2 °F 30.1 in West 4.3 mph 4.3 mph 81 % 0 in
20:22 44.1 °F 39.2 °F 30.1 in West 4.3 mph 4.3 mph 81 % 0 in
20:27 43.2 °F 39.2 °F 30.1 in WSW 3.4 mph 3.4 mph 82 % 0 in
20:32 43 °F 37.4 °F 30.1 in WSW 2.9 mph 3.4 mph 83 % 0 in
20:37 42.8 °F 37.4 °F 30.1 in WSW 2.9 mph 3.4 mph 83 % 0 in
20:42 42.4 °F 39.2 °F 30.1 in WSW 5.4 mph 5.4 mph 85 % 0 in
20:47 42.4 °F 39.2 °F 30.1 in WSW 5.4 mph 5.4 mph 86 % 0 in
20:52 42.4 °F 39.2 °F 30.1 in WSW 4.9 mph 5.6 mph 86 % 0 in
20:57 42.1 °F 39.2 °F 30.1 in WSW 3.6 mph 5.6 mph 86 % 0 in
21:02 41.9 °F 39.2 °F 30.1 in Calm   5.6 mph 86 % 0 in
21:07 41.7 °F 37.4 °F 30.1 in West 3.8 mph 4.3 mph 86 % 0 in
21:12 41.5 °F 39.2 °F 30.1 in West 3.6 mph 4.3 mph 87 % 0 in
21:17 41.5 °F 39.2 °F 30.1 in Calm   3.6 mph 87 % 0 in
21:22 41.2 °F 37.4 °F 30.1 in Calm   3.6 mph 87 % 0 in
21:27 40.8 °F 37.4 °F 30.1 in Calm   3.8 mph 87 % 0 in
21:32 40.6 °F 37.4 °F 30.1 in Calm   3.8 mph 87 % 0 in
21:37 40.5 °F 37.4 °F 30.1 in Calm   3.8 mph 87 % 0 in
21:42 40.6 °F 37.4 °F 30.1 in Calm   4 mph 88 % 0 in
21:47 40.6 °F 37.4 °F 30.1 in Calm   4 mph 88 % 0 in
21:52 40.5 °F 37.4 °F 30.1 in Calm     88 % 0 in
21:57 40.1 °F 37.4 °F 30.1 in Calm     88 % 0 in
22:02 39.9 °F 37.4 °F 30.1 in Calm     88 % 0 in
22:07 40.1 °F 37.4 °F 30.1 in Calm   2.2 mph 89 % 0 in
22:12 40.3 °F 37.4 °F 30.1 in Calm   2.2 mph 89 % 0 in
22:14 40.3 °F 37.4 °F 30.1 in Calm     89 % 0 in
22:20 40.5 °F 37.4 °F 30.1 in WSW 4 mph 4 mph 89 % 0 in
22:25 40.6 °F 37.4 °F 30.1 in West 4 mph 4 mph 90 % 0 in
22:30 40.6 °F 37.4 °F 30.1 in Calm   4 mph 90 % 0 in
22:35 41.2 °F 39.2 °F 30.1 in West 4.3 mph 4.3 mph 89 % 0 in
22:40 41.4 °F 39.2 °F 30.1 in Calm   4.3 mph 89 % 0 in
22:45 41.7 °F 39.2 °F 30.1 in Calm   4.3 mph 89 % 0 in
22:50 41.7 °F 39.2 °F 30.1 in West 4 mph 4.3 mph 89 % 0 in
22:55 42.1 °F 39.2 °F 30.1 in West 4 mph 5.4 mph 89 % 0 in
23:00 42.3 °F 39.2 °F 30.1 in West 4 mph 5.4 mph 89 % 0 in
23:05 42.4 °F 41 °F 30.1 in West 5.4 mph 5.4 mph 89 % 0 in
23:10 42.4 °F 39.2 °F 30.1 in West 5.4 mph 5.4 mph 88 % 0 in
23:15 42.4 °F 39.2 °F 30.1 in West 5.4 mph 5.4 mph 88 % 0 in
23:20 42.4 °F 39.2 °F 30.1 in West 5.4 mph 5.4 mph 88 % 0 in
23:25 42.4 °F 39.2 °F 30.1 in Calm   5.4 mph 88 % 0 in
23:31 42.3 °F 39.2 °F 30.1 in West 4.7 mph 5.4 mph 88 % 0 in
23:36 42.4 °F 39.2 °F 30.1 in West 4.7 mph 5.4 mph 88 % 0 in
23:41 42.3 °F 39.2 °F 30.1 in West 4.7 mph 4.7 mph 88 % 0 in
23:46 42.3 °F 39.2 °F 30.1 in West 4.7 mph 4.7 mph 88 % 0 in
23:51 42.3 °F 39.2 °F 30.1 in West 4.7 mph 4.7 mph 88 % 0 in
23:56 42.3 °F 39.2 °F 30.1 in West 4.7 mph 4.7 mph 88 % 0 in
Le Gheer Warneton
Courtoisie de Weather Underground - 2.25 mb

Mise a jour : 18/12/2017 23:10:11
Généré par Cumulus 1.9.4 (1099)